Welcome to our new website - Welkom op onze vernieuwde website - Bienvenue sur notre nouveau site web - Willkommen auf unserer neuen Website
Check our progress frequently. Prüfen Sie unsere Fortschritte regelmäßig. Consultez notre progression fréquemment. Komt u straks nog eens terug
Het weer levert geen direct gevaar op.    Er zijn geen waarschuwingen afgegeven.

Regen radar Meer informatie rain snow radar


Bezoek ook deze websites:

Template documentation
and downloads

And another site


U vindt ons ook hier:

UK Metoffice

WeatherCloud

Weather Underground

AWEKAS


Select another period ( hide this area )

Eenheden Periode Custom range Directly to
Metrisch Engels Beide
Dagelijkse Wekelijkse Maandelijkse Jaarlijkse
use both date-selectors for a custom range
previous Dag
With this date

WeatherUnderground graphs for this period ( click here )


Warning: Division by zero in /customers/a/f/b/meteoassenede.be/httpd.www/weather28/wu/WU-History4.php on line 835
Dagelijkse Samenvatting Donderdag 14 november 2019
Tijd Temp. ( °C ) Dew pt. ( °C ) Wind ( km/h ) van Windvlaag ( km/h ) Luchtdruk ( hPa ) Humid.( % ) Rainrate ( cm ) Zonneschijn ( W/m2 )
Hoog5,9 4,7 25,9 ZO ( 553/1369 ) 27,4 997,2 94 0,30 0
Gemiddeld5,5 4,2 13,7 ZO #40/100 21,0 995,4 92 0,60 NAN #0/100
Laag5,1 3,9 4,7   12,9 994,1 89 -  
Dagelijkse Tabular details for Donderdag 14 november 2019
Tijd Temp. ( °C ) Dew pt. ( °C ) Wind ( km/h ) van Windvlaag ( km/h ) Luchtdruk ( hPa ) Humid.( % ) Rainrate ( cm ) Zonneschijn ( W/m2 )
00:00 5,6 4,7 11,1 ZO 24,1 997,2 94 - -
00:05 5,6 4,7 13,0 Zuiden 14,5 997,2 94 - -
00:10 5,5 4,6 13,0 ZO 16,1 996,8 94 - -
00:15 5,5 4,6 7,9 ZZO 12,9 996,8 94 - -
00:20 5,5 4,6 11,1 ZZO 17,7 996,8 94 - -
00:25 5,5 4,6 6,4 ZZO 14,5 996,8 94 - -
00:30 5,4 4,5 4,7 ZZO 16,1 996,8 94 - -
00:36 5,4 4,5 11,1 Zuiden 14,5 996,8 94 - -
00:40 5,3 4,4 7,9 ZZO 14,5 996,5 94 - -
00:45 5,3 4,4 14,3 ZZO 17,7 996,5 94 - -
00:50 5,3 4,4 14,3 ZO 16,1 996,5 94 - -
00:55 5,3 4,4 9,7 ZZO 19,3 996,5 94 - -
01:00 5,3 4,4 14,3 OZO 19,3 996,5 94 - -
01:05 5,3 4,4 14,3 ZZO 19,3 996,5 94 - -
01:10 5,3 4,4 16,3 ZZO 20,9 996,5 94 - -
01:15 5,4 4,5 19,5 ZO 20,9 996,5 94 - -
01:20 5,4 4,5 14,3 OZO 25,7 996,5 94 - -
01:25 5,5 4,5 13,0 ZZO 17,7 996,5 93 - -
01:30 5,5 4,5 14,3 ZZO 22,5 996,5 93 - -
01:35 5,5 4,5 11,1 ZZO 24,1 996,5 93 - -
01:40 5,6 4,6 13,0 ZO 22,5 996,5 93 - -
01:45 5,6 4,6 25,9 ZZO 25,7 996,2 93 - -
01:50 5,6 4,6 9,7 ZO 20,9 996,2 93 - -
01:55 5,5 4,5 13,0 ZZO 16,1 996,2 93 - -
02:00 5,5 4,5 19,5 Oosten 22,5 996,2 93 - -
02:05 5,4 4,4 9,7 ZZO 17,7 996,2 93 - -
02:10 5,4 4,4 11,1 Zuiden 20,9 995,8 93 - -
02:15 5,3 4,3 16,3 ZZO 22,5 995,8 93 - -
02:20 5,3 4,3 14,3 ZZO 16,1 995,8 93 - -
02:25 5,3 4,1 6,4 ZO 17,7 995,8 92 - -
02:30 5,3 4,3 14,3 ZO 20,9 995,8 93 - -
02:35 5,3 4,3 6,4 ZO 22,5 995,8 93 - -
02:40 5,3 4,3 9,7 ZZO 19,3 995,8 93 - -
02:45 5,3 4,1 14,3 Zuiden 20,9 995,5 92 - -
02:50 5,3 4,1 7,9 ZO 20,9 995,5 92 - -
02:55 5,2 4,0 17,7 ZO 20,9 995,5 92 - -
03:00 5,2 4,0 16,3 ZO 22,5 995,1 92 - -
03:05 5,2 4,0 14,3 ZO 24,1 995,1 92 - -
03:10 5,2 4,0 11,1 Zuiden 22,5 995,5 92 - -
03:15 5,2 4,0 13,0 ZZO 17,7 995,1 92 - -
03:21 5,2 4,0 14,3 OZO 19,3 995,1 92 - -
03:25 5,2 4,0 11,1 ZO 24,1 995,1 92 - -
03:30 5,2 4,0 14,3 ZO 22,5 995,1 92 - -
03:35 5,2 4,0 17,7 ZZO 20,9 995,1 92 - -
03:40 5,2 4,0 17,7 ZZO 19,3 995,1 92 - -
03:45 5,2 4,0 17,7 ZO 22,5 995,1 92 - -
03:50 5,1 3,9 11,1 ZO 19,3 994,8 92 - -
03:55 5,2 4,0 9,7 ZZO 24,1 994,8 92 - -
04:00 5,2 4,0 4,7 OZO 24,1 994,8 92 - -
04:05 5,2 4,0 19,5 OZO 24,1 994,8 92 - -
04:10 5,2 3,9 17,7 ZZO 20,9 994,8 91 - -
04:15 5,2 4,0 14,3 ZZO 25,7 994,8 92 - -
04:20 5,2 3,9 13,0 ZO 20,9 994,5 91 - -
04:25 5,2 4,0 16,3 ZO 22,5 994,5 92 - -
04:30 5,3 4,0 9,7 ZO 19,3 994,5 91 - -
04:35 5,3 4,0 16,3 ZO 19,3 994,5 91 - -
04:40 5,3 4,0 7,9 Zuiden 20,9 994,5 91 - -
04:45 5,4 4,0 14,3 OZO 22,5 994,5 91 - -
04:50 5,4 4,0 14,3 ZO 22,5 994,5 91 - -
04:55 5,4 4,0 17,7 ZO 19,3 994,1 91 - -
05:00 5,4 4,0 17,7 ZO 20,9 994,5 91 - -
05:05 5,5 4,1 20,9 OZO 25,7 994,1 91 - -
05:10 5,6 4,2 16,3 ZZO 25,7 994,1 91 - -
05:15 5,6 4,2 17,7 OZO 20,9 994,5 91 - -
05:20 5,6 4,1 13,0 ZO 22,5 994,5 90 - -
05:25 5,6 4,1 11,1 OZO 22,5 994,1 90 - -
05:30 5,6 4,1 11,1 ZO 20,9 994,5 90 - -
05:35 5,6 4,1 13,0 ZO 24,1 994,5 90 - -
05:40 5,6 4,1 16,3 ZZO 25,7 994,5 90 - -
05:45 5,6 4,1 13,0 ZZO 24,1 994,5 90 - -
05:50 5,7 4,2 19,5 ZZO 24,1 994,5 90 - -
05:55 5,7 4,2 11,1 ZO 22,5 994,5 90 - -
06:00 5,7 4,2 9,7 ZO 17,7 994,8 90 - -
06:05 5,7 4,2 14,3 ZO 24,1 994,5 90 - -
06:10 5,7 4,2 17,7 Zuiden 22,5 994,8 90 - -
06:15 5,7 4,2 16,3 ZO 22,5 994,8 90 - -
06:20 5,7 4,2 22,7 ZO 22,5 994,8 90 - -
06:25 5,8 4,3 13,0 ZZO 22,5 994,8 90 - -
06:30 5,8 4,3 17,7 ZO 22,5 994,8 90 - -
06:35 5,8 4,3 17,7 ZO 24,1 994,8 90 - -
06:40 5,7 4,2 20,9 ZZO 20,9 994,8 90 - -
06:45 5,8 4,3 11,1 OZO 22,5 994,8 90 - -
06:50 5,8 4,3 13,0 ZO 22,5 994,8 90 - -
06:55 5,7 4,2 13,0 ZO 19,3 995,1 90 - -
07:00 5,8 4,3 14,3 ZO 17,7 995,1 90 - -
07:05 5,8 4,3 13,0 OZO 17,7 995,1 90 - -
07:10 5,7 4,2 11,1 ZZO 19,3 995,1 90 - -
07:15 5,8 4,3 11,1 ZO 17,7 995,1 90 - -
07:20 5,7 4,2 13,0 OZO 24,1 995,5 90 - -
07:25 5,8 4,3 11,1 Zuiden 22,5 995,1 90 - -
07:30 5,8 4,4 16,3 ZZO 22,5 995,5 91 0,30 -
07:35 5,7 4,3 13,0 ZZO 19,3 995,1 91 0,30 -
07:40 5,7 4,3 11,1 ZO 17,7 995,1 91 0,30 -
07:45 5,8 4,4 7,9 Zuiden 22,5 995,5 91 0,30 -
07:50 5,7 4,2 13,0 ZZO 17,7 995,5 90 0,30 -
07:55 5,8 4,3 11,1 OZO 22,5 995,8 90 0,30 -
08:00 5,8 4,3 17,7 ZZO 25,7 995,8 90 0,30 -
08:05 5,8 4,3 14,3 Zuiden 19,3 995,8 90 0,30 -
08:10 5,9 4,2 17,7 ZZO 27,4 995,8 89 0,30 -
08:15 5,9 4,2 20,9 ZO 22,5 996,2 89 0,30 -
Dagelijkse Samenvatting Donderdag 14 november 2019
Tijd Temp. ( °C ) Dew pt. ( °C ) Wind ( km/h ) van Windvlaag ( km/h ) Luchtdruk ( hPa ) Humid.( % ) Rainrate ( cm ) Zonneschijn ( W/m2 )
Hoog5,9 4,7 25,9 ZO ( 553/1369 ) 27,4 997,2 94 0,30 0
Gemiddeld5,5 4,2 13,7 ZO #40/100 21,0 995,4 92 0,60 NAN #0/100
Laag5,1 3,9 4,7   12,9 994,1 89 -  
Dagelijkse Tabular details for Donderdag 14 november 2019
Tijd Temp. ( °C ) Dew pt. ( °C ) Wind ( km/h ) van Windvlaag ( km/h ) Luchtdruk ( hPa ) Humid.( % ) Rainrate ( cm ) Zonneschijn ( W/m2 )
00:00 5,6 4,7 11,1 ZO 24,1 997,2 94 - -
00:05 5,6 4,7 13,0 Zuiden 14,5 997,2 94 - -
00:10 5,5 4,6 13,0 ZO 16,1 996,8 94 - -
00:15 5,5 4,6 7,9 ZZO 12,9 996,8 94 - -
00:20 5,5 4,6 11,1 ZZO 17,7 996,8 94 - -
00:25 5,5 4,6 6,4 ZZO 14,5 996,8 94 - -
00:30 5,4 4,5 4,7 ZZO 16,1 996,8 94 - -
00:36 5,4 4,5 11,1 Zuiden 14,5 996,8 94 - -
00:40 5,3 4,4 7,9 ZZO 14,5 996,5 94 - -
00:45 5,3 4,4 14,3 ZZO 17,7 996,5 94 - -
00:50 5,3 4,4 14,3 ZO 16,1 996,5 94 - -
00:55 5,3 4,4 9,7 ZZO 19,3 996,5 94 - -
01:00 5,3 4,4 14,3 OZO 19,3 996,5 94 - -
01:05 5,3 4,4 14,3 ZZO 19,3 996,5 94 - -
01:10 5,3 4,4 16,3 ZZO 20,9 996,5 94 - -
01:15 5,4 4,5 19,5 ZO 20,9 996,5 94 - -
01:20 5,4 4,5 14,3 OZO 25,7 996,5 94 - -
01:25 5,5 4,5 13,0 ZZO 17,7 996,5 93 - -
01:30 5,5 4,5 14,3 ZZO 22,5 996,5 93 - -
01:35 5,5 4,5 11,1 ZZO 24,1 996,5 93 - -
01:40 5,6 4,6 13,0 ZO 22,5 996,5 93 - -
01:45 5,6 4,6 25,9 ZZO 25,7 996,2 93 - -
01:50 5,6 4,6 9,7 ZO 20,9 996,2 93 - -
01:55 5,5 4,5 13,0 ZZO 16,1 996,2 93 - -
02:00 5,5 4,5 19,5 Oosten 22,5 996,2 93 - -
02:05 5,4 4,4 9,7 ZZO 17,7 996,2 93 - -
02:10 5,4 4,4 11,1 Zuiden 20,9 995,8 93 - -
02:15 5,3 4,3 16,3 ZZO 22,5 995,8 93 - -
02:20 5,3 4,3 14,3 ZZO 16,1 995,8 93 - -
02:25 5,3 4,1 6,4 ZO 17,7 995,8 92 - -
02:30 5,3 4,3 14,3 ZO 20,9 995,8 93 - -
02:35 5,3 4,3 6,4 ZO 22,5 995,8 93 - -
02:40 5,3 4,3 9,7 ZZO 19,3 995,8 93 - -
02:45 5,3 4,1 14,3 Zuiden 20,9 995,5 92 - -
02:50 5,3 4,1 7,9 ZO 20,9 995,5 92 - -
02:55 5,2 4,0 17,7 ZO 20,9 995,5 92 - -
03:00 5,2 4,0 16,3 ZO 22,5 995,1 92 - -
03:05 5,2 4,0 14,3 ZO 24,1 995,1 92 - -
03:10 5,2 4,0 11,1 Zuiden 22,5 995,5 92 - -
03:15 5,2 4,0 13,0 ZZO 17,7 995,1 92 - -
03:21 5,2 4,0 14,3 OZO 19,3 995,1 92 - -
03:25 5,2 4,0 11,1 ZO 24,1 995,1 92 - -
03:30 5,2 4,0 14,3 ZO 22,5 995,1 92 - -
03:35 5,2 4,0 17,7 ZZO 20,9 995,1 92 - -
03:40 5,2 4,0 17,7 ZZO 19,3 995,1 92 - -
03:45 5,2 4,0 17,7 ZO 22,5 995,1 92 - -
03:50 5,1 3,9 11,1 ZO 19,3 994,8 92 - -
03:55 5,2 4,0 9,7 ZZO 24,1 994,8 92 - -
04:00 5,2 4,0 4,7 OZO 24,1 994,8 92 - -
04:05 5,2 4,0 19,5 OZO 24,1 994,8 92 - -
04:10 5,2 3,9 17,7 ZZO 20,9 994,8 91 - -
04:15 5,2 4,0 14,3 ZZO 25,7 994,8 92 - -
04:20 5,2 3,9 13,0 ZO 20,9 994,5 91 - -
04:25 5,2 4,0 16,3 ZO 22,5 994,5 92 - -
04:30 5,3 4,0 9,7 ZO 19,3 994,5 91 - -
04:35 5,3 4,0 16,3 ZO 19,3 994,5 91 - -
04:40 5,3 4,0 7,9 Zuiden 20,9 994,5 91 - -
04:45 5,4 4,0 14,3 OZO 22,5 994,5 91 - -
04:50 5,4 4,0 14,3 ZO 22,5 994,5 91 - -
04:55 5,4 4,0 17,7 ZO 19,3 994,1 91 - -
05:00 5,4 4,0 17,7 ZO 20,9 994,5 91 - -
05:05 5,5 4,1 20,9 OZO 25,7 994,1 91 - -
05:10 5,6 4,2 16,3 ZZO 25,7 994,1 91 - -
05:15 5,6 4,2 17,7 OZO 20,9 994,5 91 - -
05:20 5,6 4,1 13,0 ZO 22,5 994,5 90 - -
05:25 5,6 4,1 11,1 OZO 22,5 994,1 90 - -
05:30 5,6 4,1 11,1 ZO 20,9 994,5 90 - -
05:35 5,6 4,1 13,0 ZO 24,1 994,5 90 - -
05:40 5,6 4,1 16,3 ZZO 25,7 994,5 90 - -
05:45 5,6 4,1 13,0 ZZO 24,1 994,5 90 - -
05:50 5,7 4,2 19,5 ZZO 24,1 994,5 90 - -
05:55 5,7 4,2 11,1 ZO 22,5 994,5 90 - -
06:00 5,7 4,2 9,7 ZO 17,7 994,8 90 - -
06:05 5,7 4,2 14,3 ZO 24,1 994,5 90 - -
06:10 5,7 4,2 17,7 Zuiden 22,5 994,8 90 - -
06:15 5,7 4,2 16,3 ZO 22,5 994,8 90 - -
06:20 5,7 4,2 22,7 ZO 22,5 994,8 90 - -
06:25 5,8 4,3 13,0 ZZO 22,5 994,8 90 - -
06:30 5,8 4,3 17,7 ZO 22,5 994,8 90 - -
06:35 5,8 4,3 17,7 ZO 24,1 994,8 90 - -
06:40 5,7 4,2 20,9 ZZO 20,9 994,8 90 - -
06:45 5,8 4,3 11,1 OZO 22,5 994,8 90 - -
06:50 5,8 4,3 13,0 ZO 22,5 994,8 90 - -
06:55 5,7 4,2 13,0 ZO 19,3 995,1 90 - -
07:00 5,8 4,3 14,3 ZO 17,7 995,1 90 - -
07:05 5,8 4,3 13,0 OZO 17,7 995,1 90 - -
07:10 5,7 4,2 11,1 ZZO 19,3 995,1 90 - -
07:15 5,8 4,3 11,1 ZO 17,7 995,1 90 - -
07:20 5,7 4,2 13,0 OZO 24,1 995,5 90 - -
07:25 5,8 4,3 11,1 Zuiden 22,5 995,1 90 - -
07:30 5,8 4,4 16,3 ZZO 22,5 995,5 91 0,30 -
07:35 5,7 4,3 13,0 ZZO 19,3 995,1 91 0,30 -
07:40 5,7 4,3 11,1 ZO 17,7 995,1 91 0,30 -
07:45 5,8 4,4 7,9 Zuiden 22,5 995,5 91 0,30 -
07:50 5,7 4,2 13,0 ZZO 17,7 995,5 90 0,30 -
07:55 5,8 4,3 11,1 OZO 22,5 995,8 90 0,30 -
08:00 5,8 4,3 17,7 ZZO 25,7 995,8 90 0,30 -
08:05 5,8 4,3 14,3 Zuiden 19,3 995,8 90 0,30 -
08:10 5,9 4,2 17,7 ZZO 27,4 995,8 89 0,30 -
08:15 5,9 4,2 20,9 ZO 22,5 996,2 89 0,30 -

Download your copy of this data-set  here

Our weather-data as stored at Weather Underground. Script ontwikkeld door Jim McMurry. Aangepast voor de template door Leuven-Template.eu

Apparatuur in gebruik:

Weerstation
Davis Vantage Pro2

Weerprogramma
Meteobridge

Weercomputer
TP-Link TL-MR3020

Webleverancier
One.com

Davis Vantage Pro2

Meteobridge

TP-Link TL-MR3020

One.com